Tracking 30995 objects as of 7-Jul-2025
HD Live streaming from Space Station
objects crossing your sky now

COSMOS 2065

Track COSMOS 2065 now!
10-day predictions
COSMOS 2065 is classified as:


NORAD ID: 20550
Int'l Code: 1990-029B
Perigee: 1,468.6 km
Apogee: 1,481.4 km
Inclination: 74.0 °
Period: 115.3 minutes
Semi major axis: 7845 km
RCS: 0.6645 m2 (medium)
Launch date: April 6, 1990
Source: Commonwealth of Independent States (former USSR) (CIS)
Launch site: PLESETSK MISSILE AND SPACE COMPLEX (PKMTR)
Your satellite tracking list
Your tracking list is empty




NASA's NSSDC Master Catalog

Two Line Element Set (TLE):
1 20550U 90029B   25187.59401821 -.00000004  00000-0  79104-4 0  9995
2 20550  73.9819  38.7574 0008139 139.1212 281.1800 12.49199534607555
Source of the keplerian elements: AFSPC